ALANSN-2 Weather Reports


time (UTC)temp
C
wind
direction
speed
KPH
gust
KPH
rain 1hr
cm
rain 24hr
cm
rain mn
cm
humidity
%
barometer
mb
20260508013502 5 244 0.0 0.0 0.00 0.00 0.00 70 1017.4
20260508012001 6 249 1.6 3.2 0.00 0.00 0.00 68 1017.2
20260508011502 6 286 3.2 4.8 0.00 0.00 0.00 68 1017.4
20260508010502 6 292 6.4 8.0 0.00 0.00 0.00 69 1017.3
20260508010001 6 246 3.2 3.2 0.00 0.00 0.00 66 1017.2
20260508004502 6 291 3.2 4.8 0.00 0.00 0.00 66 1017.0
20260508004001 6 325 3.2 4.8 0.00 0.00 0.00 65 1017.1
20260508003502 6 345 3.2 3.2 0.00 0.00 0.00 65 1017.0
20260508001501 6 296 4.8 6.4 0.00 0.00 0.00 64 1016.8
20260508001002 6 269 3.2 4.8 0.00 0.00 0.00 64 1016.8
20260508000501 6 249 6.4 8.0 0.00 0.00 0.00 63 1016.8
20260507235502 6 259 6.4 9.7 0.00 0.00 0.00 63 1016.8
20260507235002 6 284 9.7 11.3 0.00 0.00 0.00 63 1016.8
20260507234502 6 282 11.3 11.3 0.00 0.00 0.00 62 1016.7
20260507234002 6 269 12.9 14.5 0.00 0.00 0.00 62 1016.6
20260507233502 6 286 9.7 16.1 0.00 0.00 0.00 62 1016.7
20260507233002 6 280 8.0 9.7 0.00 0.00 0.00 63 1016.4
20260507232502 6 305 11.3 14.5 0.00 0.00 0.00 61 1016.7
20260507231502 7 278 3.2 4.8 0.00 0.00 0.00 62 1016.5
20260507231002 7 277 16.1 19.3 0.00 0.00 0.00 62 1016.6
20260507230002 7 331 6.4 8.0 0.00 0.00 0.00 62 1016.7
20260507225502 7 272 8.0 11.3 0.00 0.00 0.00 62 1016.6
20260507224502 7 324 8.0 9.7 0.00 0.00 0.00 63 1016.7
20260507224001 7 297 14.5 16.1 0.00 0.00 0.00 62 1016.8
20260507223502 7 284 6.4 6.4 0.00 0.00 0.00 61 1016.6
20260507222502 7 284 16.1 17.7 0.00 0.00 0.00 63 1016.7
20260507222001 7 338 6.4 6.4 0.00 0.00 0.00 62 1016.8
20260507220002 7 315 12.9 17.7 0.00 0.00 0.00 58 1016.7
20260507215501 7 291 6.4 8.0 0.00 0.00 0.00 58 1016.5
20260507215002 7 286 11.3 17.7 0.00 0.00 0.00 57 1016.5
20260507214501 7 313 8.0 11.3 0.00 0.00 0.00 57 1016.7
20260507214002 7 260 14.5 17.7 0.00 0.00 0.00 56 1016.6
20260507213501 7 274 14.5 16.1 0.00 0.00 0.00 54 1016.5
20260507213002 7 283 17.7 19.3 0.00 0.00 0.00 56 1016.4
20260507212502 7 298 6.4 8.0 0.00 0.00 0.00 56 1016.4
20260507212001 8 287 8.0 11.3 0.00 0.00 0.00 54 1016.4
20260507211001 8 298 9.7 14.5 0.00 0.00 0.00 53 1016.5
20260507210502 7 327 6.4 9.7 0.00 0.00 0.00 54 1016.4
20260507210002 8 290 12.9 16.1 0.00 0.00 0.00 53 1016.6
20260507205502 8 286 16.1 19.3 0.00 0.00 0.00 54 1016.7
20260507203502 7 293 16.1 17.7 0.00 0.00 0.00 56 1016.4
20260507203002 8 288 14.5 16.1 0.00 0.00 0.00 58 1016.6
20260507202002 7 281 14.5 17.7 0.00 0.00 0.00 57 1016.5
20260507201502 7 270 17.7 20.9 0.00 0.00 0.00 57 1016.7
20260507201002 8 268 12.9 16.1 0.00 0.00 0.00 58 1016.6
20260507200501 8 267 14.5 20.9 0.00 0.00 0.00 58 1016.6
20260507200002 8 297 8.0 14.5 0.00 0.00 0.00 57 1016.6
20260507195501 7 303 14.5 17.7 0.00 0.00 0.00 57 1016.6
20260507195002 7 308 6.4 9.7 0.00 0.00 0.00 59 1016.6
20260507194501 8 344 8.0 9.7 0.00 0.00 0.00 59 1016.7
20260507194002 8 251 8.0 14.5 0.00 0.00 0.00 58 1016.8
20260507193502 7 335 6.4 8.0 0.00 0.00 0.00 59 1017.0
20260507193002 7 287 24.1 25.7 0.00 0.00 0.00 60 1017.1
20260507192002 7 325 6.4 9.7 0.00 0.00 0.00 59 1017.0
20260507191502 7 270 17.7 19.3 0.00 0.00 0.00 61 1017.1
20260507191001 7 270 17.7 20.9 0.00 0.00 0.00 59 1017.2
20260507185502 7 255 17.7 22.5 0.00 0.00 0.00 62 1017.3
20260507184502 7 299 16.1 17.7 0.00 0.00 0.00 61 1017.1
20260507183502 7 279 17.7 19.3 0.00 0.00 0.00 61 1017.4
20260507183001 7 290 9.7 14.5 0.00 0.00 0.00 61 1017.1
20260507182002 7 276 11.3 14.5 0.00 0.00 0.00 62 1017.3
20260507181502 7 277 27.4 29.0 0.00 0.00 0.00 59 1017.3
20260507180002 7 252 20.9 22.5 0.00 0.00 0.00 65 1017.6
20260507175501 6 283 14.5 17.7 0.00 0.00 0.00 63 1017.6
20260507174501 7 293 16.1 19.3 0.00 0.00 0.00 64 1017.6
20260507174002 6 291 12.9 14.5 0.00 0.00 0.00 66 1017.6
20260507173501 6 302 19.3 22.5 0.00 0.00 0.00 67 1017.7
20260507172501 7 281 9.7 11.3 0.00 0.00 0.00 64 1018.2
20260507171502 6 297 9.7 17.7 0.00 0.00 0.00 63 1018.2
20260507171002 7 349 9.7 14.5 0.00 0.00 0.00 66 1018.2
20260507170502 6 343 8.0 14.5 0.00 0.00 0.00 64 1018.3
20260507170001 6 316 19.3 22.5 0.00 0.00 0.00 63 1018.6
20260507165502 6 299 8.0 11.3 0.00 0.00 0.00 67 1018.4
20260507163502 6 322 16.1 20.9 0.00 0.00 0.00 67 1018.5
20260507161501 6 310 8.0 8.0 0.00 0.00 0.00 67 1018.6
20260507161002 6 258 12.9 14.5 0.00 0.00 0.00 69 1018.8
20260507155502 6 244 11.3 16.1 0.00 0.00 0.00 69 1018.9
20260507154502 6 322 11.3 16.1 0.00 0.00 0.00 68 1018.8
20260507154001 6 287 14.5 20.9 0.00 0.00 0.00 70 1018.9
20260507153002 6 304 12.9 16.1 0.00 0.00 0.00 71 1019.1
20260507152002 6 283 9.7 11.3 0.00 0.00 0.00 72 1019.2
20260507151502 6 289 14.5 16.1 0.00 0.00 0.00 71 1019.0
20260507151002 6 245 16.1 19.3 0.00 0.00 0.00 72 1018.9
20260507150501 6 240 14.5 16.1 0.00 0.00 0.00 72 1019.2
20260507150003 5 265 12.9 14.5 0.00 0.00 0.00 73 1019.2
20260507145502 5 269 12.9 14.5 0.00 0.00 0.00 72 1019.4
20260507145002 6 288 12.9 14.5 0.00 0.00 0.00 72 1019.4
20260507144502 5 256 12.9 14.5 0.00 0.00 0.00 72 1019.4
20260507144002 5 296 4.8 8.0 0.00 0.00 0.00 73 1019.3
20260507143502 5 296 12.9 14.5 0.00 0.00 0.00 73 1019.4
20260507143001 5 275 11.3 11.3 0.00 0.00 0.00 73 1019.4
20260507142502 5 274 4.8 8.0 0.00 0.00 0.00 75 1019.5
20260507142002 5 252 9.7 9.7 0.00 0.00 0.00 76 1019.4
20260507141002 5 257 6.4 9.7 0.00 0.00 0.00 77 1019.6
20260507140502 5 275 6.4 8.0 0.00 0.00 0.00 74 1019.6
20260507140002 5 271 6.4 8.0 0.00 0.00 0.00 76 1019.7
20260507135502 5 238 9.7 9.7 0.00 0.00 0.00 80 1019.6
20260507134001 4 286 8.0 8.0 0.00 0.00 0.00 80 1019.7
20260507133001 4 283 6.4 6.4 0.00 0.00 0.00 80 1019.7
20260507131002 3 278 3.2 4.8 0.00 0.00 0.00 81 1019.8
20260507124501 3 321 3.2 3.2 0.00 0.00 0.00 86 1020.0
20260507122501 2 172 0.0 0.0 0.00 0.00 0.00 89 1020.0
20260507122002 2 191 0.0 0.0 0.00 0.00 0.00 89 1019.9
20260507121502 2 179 0.0 0.0 0.00 0.00 0.00 89 1020.0
20260507121001 1 194 0.0 0.0 0.00 0.00 0.00 90 1020.1
20260507120001 1 152 1.6 3.2 0.00 0.00 0.00 89 1020.0
20260507114502 1 149 0.0 0.0 0.00 0.00 0.00 91 1019.9
20260507114001 0 153 0.0 0.0 0.00 0.00 0.00 92 1020.1
20260507113502 0 154 0.0 0.0 0.00 0.00 0.00 93 1020.0
20260507112002 -1 150 0.0 0.0 0.00 0.00 0.00 97 1020.2
20260507111002 -1 143 1.6 3.2 0.00 0.00 0.00 98 1020.1
20260507110502 -1 150 0.0 0.0 0.00 0.00 0.00 98 1020.2
20260507110002 -1 138 0.0 0.0 0.00 0.00 0.00 98 1020.2
20260507105002 -2 91 0.0 0.0 0.00 0.00 0.00 98 1020.0
20260507103502 -2 114 0.0 0.0 0.00 0.00 0.00 97 1019.8
20260507103001 -2 108 0.0 0.0 0.00 0.00 0.00 97 1020.1
20260507102502 -2 140 0.0 0.0 0.00 0.00 0.00 97 1020.0
20260507102001 -2 91 1.6 3.2 0.00 0.00 0.00 97 1019.9
20260507101502 -2 137 1.6 3.2 0.00 0.00 0.00 97 1019.9
20260507101002 -2 85 1.6 3.2 0.00 0.00 0.00 97 1020.1
20260507100501 -2 92 1.6 3.2 0.00 0.00 0.00 97 1019.9
20260507100002 -2 114 1.6 3.2 0.00 0.00 0.00 97 1019.8
20260507093502 -1 145 0.0 0.0 0.00 0.00 0.00 96 1019.8
20260507093001 -1 144 0.0 0.0 0.00 0.00 0.00 96 1020.1
20260507092001 -1 144 0.0 0.0 0.00 0.00 0.00 96 1020.1
20260507090501 -1 110 1.6 3.2 0.00 0.00 0.00 97 1020.2
20260507085501 -1 142 0.0 0.0 0.00 0.00 0.00 97 1020.5
20260507085002 -1 122 0.0 0.0 0.00 0.00 0.00 97 1020.2
20260507084002 -2 144 0.0 0.0 0.00 0.00 0.00 97 1020.2
20260507083001 -2 150 0.0 0.0 0.00 0.00 0.00 97 1020.0
20260507082502 -2 121 0.0 0.0 0.00 0.00 0.00 96 1020.2
20260507082001 -2 114 0.0 0.0 0.00 0.00 0.00 96 1020.1
20260507081502 -2 143 0.0 0.0 0.00 0.00 0.00 96 1020.2
20260507081001 -2 111 0.0 0.0 0.00 0.00 0.00 96 1020.2
20260507080002 -2 115 0.0 0.0 0.00 0.00 0.00 96 1020.1
20260507075501 -2 110 0.0 0.0 0.00 0.00 0.00 95 1020.4
20260507074501 -2 134 0.0 0.0 0.00 0.00 0.00 95 1020.3
20260507073501 -2 127 0.0 0.0 0.00 0.00 0.00 95 1020.2
20260507073002 -1 126 0.0 0.0 0.00 0.00 0.00 95 1020.3
20260507071501 -1 127 0.0 0.0 0.00 0.00 0.00 95 1020.5
20260507071002 -1 113 0.0 0.0 0.00 0.00 0.00 95 1020.3
20260507070502 -1 119 1.6 3.2 0.00 0.00 0.00 95 1020.3
20260507065502 -1 111 1.6 3.2 0.00 0.00 0.00 95 1020.6
20260507065002 -1 68 3.2 3.2 0.00 0.00 0.00 94 1020.5
20260507064502 -1 135 0.0 0.0 0.00 0.00 0.00 94 1020.6
20260507063002 -1 133 1.6 3.2 0.00 0.00 0.00 94 1020.6
20260507062502 -1 138 0.0 0.0 0.00 0.00 0.00 94 1020.4
20260507062001 -1 113 1.6 3.2 0.00 0.00 0.00 94 1020.4
20260507061502 -1 125 0.0 0.0 0.00 0.00 0.00 93 1020.2
20260507060502 -1 49 3.2 4.8 0.00 0.00 0.00 93 1020.3
20260507060001 -1 62 3.2 4.8 0.00 0.00 0.00 93 1020.5
20260507055502 -1 59 3.2 3.2 0.00 0.00 0.00 93 1020.4
20260507055001 -1 55 3.2 3.2 0.00 0.00 0.00 92 1020.5
20260507054502 -1 60 3.2 3.2 0.00 0.00 0.00 92 1020.7
20260507053502 -1 51 3.2 3.2 0.00 0.00 0.00 91 1020.3
20260507053001 0 47 3.2 3.2 0.00 0.00 0.00 91 1020.4
20260507051502 0 53 3.2 4.8 0.00 0.00 0.00 89 1020.6
20260507051001 0 50 3.2 3.2 0.00 0.00 0.00 89 1020.4
20260507050001 0 100 0.0 0.0 0.00 0.00 0.00 87 1020.6
20260507044001 1 101 1.6 3.2 0.00 0.00 0.00 85 1020.5
20260507043502 1 56 3.2 3.2 0.00 0.00 0.00 87 1020.3
20260507042002 1 77 0.0 0.0 0.00 0.00 0.00 87 1020.5
20260507040501 2 37 0.0 0.0 0.00 0.00 0.00 85 1020.4
20260507040002 2 21 0.0 0.0 0.00 0.00 0.00 83 1020.1
20260507035501 2 244 0.0 0.0 0.00 0.00 0.00 82 1020.4
20260507034501 3 251 1.6 3.2 0.00 0.00 0.00 78 1020.5
20260507033501 3 243 0.0 0.0 0.00 0.00 0.00 74 1020.3
20260507033002 3 328 3.2 3.2 0.00 0.00 0.00 75 1020.4
20260507032502 3 260 0.0 0.0 0.00 0.00 0.00 75 1020.5
20260507032002 4 271 1.6 3.2 0.00 0.00 0.00 74 1020.4
20260507031502 4 282 8.0 9.7 0.00 0.00 0.00 73 1020.2
20260507031002 4 264 8.0 8.0 0.00 0.00 0.00 72 1020.3
20260507030502 4 271 8.0 8.0 0.00 0.00 0.00 73 1020.1
20260507025501 4 286 1.6 3.2 0.00 0.00 0.00 74 1020.2
20260507024501 4 274 3.2 3.2 0.00 0.00 0.00 74 1020.2
20260507024002 4 291 4.8 6.4 0.00 0.00 0.00 74 1020.0
20260507023501 4 240 0.0 0.0 0.00 0.00 0.00 74 1020.2
20260507023002 4 291 1.6 3.2 0.00 0.00 0.00 73 1020.2
20260507022502 4 273 4.8 6.4 0.00 0.00 0.00 73 1020.1
20260507022002 5 270 4.8 6.4 0.00 0.00 0.00 73 1020.0
20260507021502 4 250 6.4 8.0 0.00 0.00 0.00 71 1020.0
20260507021002 4 258 1.6 3.2 0.00 0.00 0.00 72 1020.0
20260507020502 4 243 0.0 0.0 0.00 0.00 0.00 71 1020.1
20260507020002 4 277 3.2 3.2 0.00 0.00 0.00 72 1020.0
20260507015501 4 313 1.6 3.2 0.00 0.00 0.00 71 1020.1
20260507015002 4 308 3.2 4.8 0.00 0.00 0.00 72 1020.0